• In Spain
  • List of Countries
  • For 7 days
  • Water Temperature
  • Satellite Maps
  • Weather Map
  • Weather Widgets
  • user-avatar
    Login

    Hourly Weather Veliko Tarnovo

    Today, 19 September, Wednesday

    Time Temperature Precipitation Wind Pressure Humidity
    00:00 +16°C° 0 mm 2 mps 744 mmHg 69%
    01:00 +15°C° 0 mm 2 mps 744 mmHg 71%
    02:00 +15°C° 0 mm 1 mps 744 mmHg 72%
    03:00 +15°C° 0 mm 1 mps 744 mmHg 74%
    04:00 +14°C° 0 mm 1 mps 744 mmHg 75%
    05:00 +14°C° 0 mm 1 mps 744 mmHg 77%
    06:00 +15°C° 0 mm 1 mps 744 mmHg 73%
    07:00 +18°C° 0 mm 1 mps 744 mmHg 68%
    08:00 +19°C° 0 mm 1 mps 744 mmHg 64%
    09:00 +21°C° 0 mm 1 mps 744 mmHg 56%
    10:00 +23°C° 0 mm 2 mps 744 mmHg 49%
    11:00 +25°C° 0 mm 2 mps 744 mmHg 41%
    12:00 +26°C° 0 mm 2 mps 744 mmHg 37%
    13:00 +27°C° 0 mm 2 mps 744 mmHg 34%
    14:00 +28°C° 0 mm 2 mps 744 mmHg 30%
    15:00 +28°C° 0 mm 2 mps 743 mmHg 31%
    16:00 +27°C° 0 mm 2 mps 743 mmHg 32%
    17:00 +27°C° 0 mm 2 mps 743 mmHg 34%
    18:00 +24°C° 0 mm 2 mps 743 mmHg 40%
    19:00 +21°C° 0 mm 2 mps 743 mmHg 47%
    20:00 +19°C° 0 mm 2 mps 743 mmHg 53%
    21:00 +18°C° 0 mm 2 mps 743 mmHg 58%
    22:00 +17°C° 0 mm 2 mps 743 mmHg 63%
    23:00 +16°C° 0 mm 2 mps 743 mmHg 67%

    Tomorrow, 20 September, Thursday

    Time Temperature Precipitation Wind Pressure Humidity
    00:00 +16°C° 0 mm 2 mps 743 mmHg 69%
    01:00 +15°C° 0 mm 1 mps 743 mmHg 72%
    02:00 +15°C° 0 mm 1 mps 743 mmHg 74%
    03:00 +14°C° 0 mm 1 mps 743 mmHg 75%
    04:00 +14°C° 0 mm 1 mps 743 mmHg 76%
    05:00 +14°C° 0 mm 1 mps 743 mmHg 77%
    06:00 +15°C° 0 mm 1 mps 743 mmHg 72%
    07:00 +18°C° 0 mm 1 mps 743 mmHg 66%
    08:00 +19°C° 0 mm 1 mps 743 mmHg 61%
    09:00 +21°C° 0 mm 1 mps 743 mmHg 52%
    10:00 +23°C° 0 mm 1 mps 743 mmHg 44%
    11:00 +26°C° 0 mm 2 mps 743 mmHg 36%
    12:00 +27°C° 0 mm 2 mps 743 mmHg 33%
    13:00 +28°C° 0 mm 2 mps 743 mmHg 31%
    14:00 +29°C° 0 mm 2 mps 742 mmHg 29%
    15:00 +28°C° 0 mm 2 mps 742 mmHg 31%
    16:00 +28°C° 0 mm 2 mps 742 mmHg 33%
    17:00 +28°C° 0 mm 2 mps 742 mmHg 35%
    18:00 +25°C° 0 mm 2 mps 742 mmHg 41%
    19:00 +23°C° 0 mm 2 mps 742 mmHg 48%
    20:00 +21°C° 0 mm 1 mps 742 mmHg 54%
    21:00 +20°C° 0 mm 1 mps 742 mmHg 58%
    22:00 +20°C° 0 mm 1 mps 742 mmHg 61%
    23:00 +19°C° 0 mm 1 mps 742 mmHg 65%

    Day after tomorrow, 21 September, Friday

    Time Temperature Precipitation Wind Pressure Humidity
    00:00 +18°C° 0 mm 1 mps 742 mmHg 67%
    01:00 +18°C° 0 mm 1 mps 742 mmHg 68%
    02:00 +18°C° 0 mm 1 mps 742 mmHg 70%
    03:00 +16°C° 0 mm 1 mps 742 mmHg 71%
    04:00 +16°C° 0 mm 1 mps 742 mmHg 72%
    05:00 +16°C° 0 mm 1 mps 741 mmHg 73%
    06:00 +18°C° 0 mm 1 mps 742 mmHg 67%
    07:00 +17°C° 0 mm 0 mps 742 mmHg 62%
    08:00 +19°C° 0 mm 0 mps 742 mmHg 57%
    09:00 +23°C° 0 mm 1 mps 742 mmHg 49%
    10:00 +25°C° 0 mm 1 mps 742 mmHg 42%
    11:00 +27°C° 0 mm 2 mps 743 mmHg 34%
    12:00 +28°C° 0 mm 2 mps 742 mmHg 31%
    13:00 +29°C° 0 mm 2 mps 742 mmHg 29%
    14:00 +30°C° 0 mm 2 mps 742 mmHg 27%
    15:00 +29°C° 0 mm 2 mps 741 mmHg 28%
    16:00 +29°C° 0 mm 2 mps 741 mmHg 30%
    17:00 +28°C° 0 mm 2 mps 741 mmHg 32%
    18:00 +26°C° 0 mm 2 mps 741 mmHg 37%
    19:00 +24°C° 0 mm 2 mps 741 mmHg 42%
    20:00 +21°C° 0 mm 2 mps 741 mmHg 47%
    21:00 +20°C° 0 mm 2 mps 741 mmHg 52%
    22:00 +20°C° 0 mm 2 mps 741 mmHg 56%
    23:00 +19°C° 0 mm 2 mps 741 mmHg 61%

    22 September, Saturday

    Time Temperature Precipitation Wind Pressure Humidity
    00:00 +18°C° 0 mm 2 mps 741 mmHg 63%
    01:00 +19°C° 0 mm 1 mps 741 mmHg 66%
    02:00 +19°C° 0 mm 1 mps 741 mmHg 68%
    03:00 +18°C° 0 mm 1 mps 741 mmHg 69%
    04:00 +18°C° 0 mm 1 mps 741 mmHg 70%
    05:00 +18°C° 0 mm 1 mps 741 mmHg 71%
    06:00 +19°C° 0 mm 1 mps 741 mmHg 66%
    07:00 +21°C° 0 mm 1 mps 741 mmHg 61%
    08:00 +20°C° 0 mm 0 mps 741 mmHg 56%
    09:00 +24°C° 0 mm 1 mps 741 mmHg 49%
    10:00 +27°C° 0 mm 1 mps 741 mmHg 41%
    11:00 +29°C° 0 mm 1 mps 741 mmHg 34%
    12:00 +30°C° 0 mm 1 mps 741 mmHg 32%
    13:00 +30°C° 0 mm 1 mps 740 mmHg 29%
    14:00 +31°C° 0 mm 1 mps 740 mmHg 27%
    15:00 +31°C° 0 mm 1 mps 740 mmHg 28%
    16:00 +30°C° 0 mm 1 mps 740 mmHg 29%
    17:00 +30°C° 0 mm 1 mps 739 mmHg 31%
    18:00 +27°C° 0 mm 1 mps 740 mmHg 34%
    19:00 +25°C° 0 mm 1 mps 740 mmHg 38%
    20:00 +23°C° 0 mm 1 mps 740 mmHg 41%
    21:00 +22°C° 0 mm 1 mps 740 mmHg 43%
    22:00 +22°C° 0 mm 1 mps 740 mmHg 45%
    23:00 +20°C° 0 mm 2 mps 740 mmHg 47%

    23 September, Sunday

    Time Temperature Precipitation Wind Pressure Humidity
    00:00 +20°C° 0 mm 2 mps 740 mmHg 48%
    01:00 +20°C° 0 mm 1 mps 740 mmHg 48%
    02:00 +20°C° 0 mm 1 mps 739 mmHg 49%
    03:00 +20°C° 0 mm 1 mps 739 mmHg 49%
    04:00 +20°C° 0 mm 1 mps 739 mmHg 49%
    05:00 +20°C° 0 mm 1 mps 739 mmHg 49%
    06:00 +19°C° 0 mm 3 mps 740 mmHg 50%
    07:00 +20°C° 0 mm 4 mps 740 mmHg 51%
    08:00 +21°C° 0 mm 5 mps 740 mmHg 52%
    09:00 +22°C° 0 mm 5 mps 740 mmHg 50%
    10:00 +25°C° 0 mm 5 mps 741 mmHg 48%
    11:00 +26°C° 0 mm 6 mps 741 mmHg 46%
    12:00 +27°C° 0 mm 6 mps 741 mmHg 43%
    13:00 +27°C° 0 mm 6 mps 740 mmHg 41%
    14:00 +28°C° 0 mm 5 mps 740 mmHg 39%
    15:00 +27°C° 0 mm 5 mps 740 mmHg 40%
    16:00 +26°C° 0 mm 4 mps 740 mmHg 41%
    17:00 +25°C° 0 mm 4 mps 740 mmHg 42%
    18:00 +22°C° 0 mm 3 mps 741 mmHg 47%
    19:00 +20°C° 0 mm 3 mps 741 mmHg 51%
    20:00 +18°C° 0 mm 2 mps 742 mmHg 56%
    21:00 +18°C° 0 mm 2 mps 742 mmHg 58%
    22:00 +17°C° 0 mm 2 mps 742 mmHg 60%
    23:00 +17°C° 0 mm 3 mps 742 mmHg 61%

    24 September, Monday

    Time Temperature Precipitation Wind Pressure Humidity
    00:00 +16°C° 0 mm 3 mps 742 mmHg 63%
    01:00 +16°C° 0 mm 3 mps 742 mmHg 65%
    02:00 +16°C° 0 mm 3 mps 742 mmHg 66%
    03:00 +15°C° 0 mm 2 mps 741 mmHg 68%
    04:00 +15°C° 0 mm 2 mps 741 mmHg 69%
    05:00 +15°C° 0 mm 2 mps 741 mmHg 70%
    06:00 +16°C° 0 mm 3 mps 741 mmHg 67%
    07:00 +17°C° 0 mm 3 mps 741 mmHg 64%
    08:00 +18°C° 0 mm 3 mps 741 mmHg 62%
    09:00 +20°C° 0 mm 3 mps 740 mmHg 57%
    10:00 +24°C° 0 mm 3 mps 740 mmHg 52%
    11:00 +26°C° 0 mm 2 mps 740 mmHg 47%
    12:00 +27°C° 0 mm 2 mps 739 mmHg 44%
    13:00 +28°C° 0 mm 2 mps 738 mmHg 41%
    14:00 +29°C° 0 mm 2 mps 738 mmHg 38%
    15:00 +29°C° 0 mm 2 mps 737 mmHg 39%
    16:00 +29°C° 0 mm 2 mps 736 mmHg 40%
    17:00 +28°C° 0 mm 3 mps 736 mmHg 41%
    18:00 +26°C° 0 mm 3 mps 736 mmHg 48%
    19:00 +24°C° 0 mm 3 mps 736 mmHg 54%
    20:00 +21°C° 0 mm 3 mps 735 mmHg 61%
    21:00 +21°C° 0 mm 3 mps 735 mmHg 63%
    22:00 +20°C° 0 mm 3 mps 735 mmHg 66%
    23:00 +20°C° 0 mm 3 mps 735 mmHg 69%
    Show more